EA7WL-13 Weather Reports


time (UTC)temp
C
wind
direction
speed
KPH
gust
KPH
rain 1hr
cm
rain 24hr
cm
rain mn
cm
humidity
%
barometer
mb
20260507145003 18 265 9.7 16.1 0.00 0.00 0.00 54 1012.7
20260507144503 18 271 8.0 16.1 0.00 0.00 0.00 53 1012.6
20260507144003 19 286 8.0 14.5 0.00 0.00 0.00 50 1012.7
20260507143503 18 276 9.7 16.1 0.00 0.00 0.00 53 1012.8
20260507143003 18 277 8.0 16.1 0.00 0.00 0.00 53 1012.8
20260507142504 18 296 6.4 12.9 0.00 0.00 0.00 51 1012.7
20260507142003 18 293 8.0 16.1 0.00 0.00 0.00 51 1012.8
20260507141503 18 279 9.7 16.1 0.00 0.00 0.00 50 1013.0
20260507141003 18 274 9.7 17.7 0.00 0.00 0.00 51 1012.9
20260507140718 18 276 9.7 17.7 0.00 0.00 0.00 51 1012.8
20260507140003 19 265 9.7 17.7 0.00 0.00 0.00 49 1012.9
20260507135503 20 236 9.7 17.7 0.00 0.00 0.00 41 1013.0
20260507135217 20 234 9.7 17.7 0.00 0.00 0.00 37 1012.9
20260507134718 21 252 8.0 17.7 0.00 0.00 0.00 35 1013.0
20260507134217 21 287 6.4 14.5 0.00 0.00 0.00 43 1013.0
20260507133503 21 238 8.0 17.7 0.00 0.00 0.00 30 1012.9
20260507133217 20 221 8.0 17.7 0.00 0.00 0.00 32 1012.9
20260507132503 20 207 8.0 22.5 0.00 0.00 0.00 33 1013.2
20260507132003 20 218 12.9 22.5 0.00 0.00 0.00 33 1013.1
20260507131503 20 222 9.7 20.9 0.00 0.00 0.00 33 1013.2
20260507131216 20 202 8.0 17.7 0.00 0.00 0.00 31 1013.3
20260507130503 20 205 9.7 22.5 0.00 0.00 0.00 32 1013.4
20260507130003 20 210 9.7 22.5 0.00 0.00 0.00 32 1013.5
20260507125503 20 183 6.4 17.7 0.00 0.00 0.00 31 1013.5
20260507125216 19 171 8.0 22.5 0.00 0.00 0.00 30 1013.4
20260507124503 20 214 11.3 24.1 0.00 0.00 0.00 29 1013.4
20260507124218 20 226 8.0 24.1 0.00 0.00 0.00 30 1013.5
20260507123503 20 201 6.4 17.7 0.00 0.00 0.00 31 1013.5
20260507123003 19 212 6.4 17.7 0.00 0.00 0.00 31 1013.7
20260507122503 19 178 6.4 17.7 0.00 0.00 0.00 33 1013.8
20260507122004 18 198 9.7 17.7 0.00 0.00 0.00 31 1013.7
20260507121717 18 199 11.3 24.1 0.00 0.00 0.00 31 1013.9
20260507121003 19 173 9.7 24.1 0.00 0.00 0.00 34 1013.8
20260507120503 19 173 8.0 20.9 0.00 0.00 0.00 33 1013.7
20260507120004 19 205 9.7 24.1 0.00 0.00 0.00 29 1013.9
20260507115503 18 217 9.7 24.1 0.00 0.00 0.00 32 1013.9
20260507115003 18 214 9.7 22.5 0.00 0.00 0.00 38 1013.9
20260507114503 18 219 11.3 22.5 0.00 0.00 0.00 37 1014.1
20260507114003 18 202 8.0 20.9 0.00 0.00 0.00 37 1014.0
20260507113503 18 202 9.7 20.9 0.00 0.00 0.00 35 1013.8
20260507113004 17 217 9.7 22.5 0.00 0.00 0.00 37 1014.2
20260507112503 19 216 6.4 22.5 0.00 0.00 0.00 38 1014.0
20260507112003 18 227 6.4 17.7 0.00 0.00 0.00 39 1014.1
20260507111504 18 208 8.0 17.7 0.00 0.00 0.00 39 1014.0
20260507111003 18 191 9.7 22.5 0.00 0.00 0.00 42 1014.1
20260507110503 17 202 11.3 22.5 0.00 0.00 0.00 43 1014.2
20260507110003 18 191 11.3 25.7 0.00 0.00 0.00 42 1014.1
20260507105503 17 184 11.3 25.7 0.00 0.00 0.00 44 1014.2
20260507105218 18 189 9.7 24.1 0.00 0.00 0.00 44 1014.0
20260507104503 17 189 12.9 24.1 0.00 0.00 0.00 44 1014.1
20260507104003 17 187 12.9 27.4 0.00 0.00 0.00 45 1014.3
20260507103503 17 195 12.9 27.4 0.00 0.00 0.00 48 1014.2
20260507103003 17 209 12.9 27.4 0.00 0.00 0.00 48 1014.1
20260507102503 17 218 12.9 27.4 0.00 0.00 0.00 49 1014.3
20260507102003 17 225 11.3 25.7 0.00 0.00 0.00 50 1014.2
20260507101718 17 231 12.9 25.7 0.00 0.00 0.00 50 1014.3
20260507101003 16 226 16.1 30.6 0.00 0.00 0.00 51 1014.1
20260507100503 16 223 14.5 30.6 0.00 0.00 0.00 51 1014.4
20260507100003 16 217 12.9 24.1 0.00 0.00 0.00 52 1014.1
20260507095718 16 213 11.3 24.1 0.00 0.00 0.00 54 1014.1
20260507095003 16 199 11.3 22.5 0.00 0.00 0.00 55 1014.2
20260507094716 16 198 11.3 22.5 0.00 0.00 0.00 55 1014.1
20260507094003 15 211 12.9 25.7 0.00 0.00 0.00 57 1014.1
20260507093503 16 219 12.9 25.7 0.00 0.00 0.00 57 1014.1
20260507093003 16 229 12.9 24.1 0.00 0.00 0.00 58 1014.1
20260507092504 16 232 11.3 24.1 0.00 0.00 0.00 58 1014.2
20260507092003 15 215 9.7 17.7 0.00 0.00 0.00 59 1014.1
20260507091503 16 209 11.3 20.9 0.00 0.00 0.00 59 1014.0
20260507091003 15 222 9.7 20.9 0.00 0.00 0.00 58 1014.1
20260507090503 16 230 9.7 16.1 0.00 0.00 0.00 59 1014.1
20260507090004 15 231 9.7 16.1 0.00 0.00 0.00 58 1014.0
20260507085503 15 225 8.0 16.1 0.00 0.00 0.00 59 1014.1
20260507085003 15 215 6.4 14.5 0.00 0.00 0.00 59 1014.1
20260507084503 15 215 6.4 12.9 0.00 0.00 0.00 59 1014.1
20260507084217 15 219 6.4 12.9 0.00 0.00 0.00 59 1014.0
20260507083503 15 230 6.4 14.5 0.00 0.00 0.00 60 1014.0
20260507083217 15 227 6.4 14.5 0.00 0.00 0.00 60 1014.1
20260507082503 15 226 6.4 12.9 0.00 0.00 0.00 60 1014.0
20260507082217 15 222 6.4 11.3 0.00 0.00 0.00 61 1014.1
20260507081503 15 186 4.8 16.1 0.00 0.00 0.00 60 1014.0
20260507081003 15 191 4.8 12.9 0.00 0.00 0.00 60 1014.2
20260507080718 14 181 4.8 12.9 0.00 0.00 0.00 62 1014.0
20260507080004 15 145 1.6 6.4 0.00 0.00 0.00 59 1014.0
20260507075503 15 157 3.2 9.7 0.00 0.00 0.00 60 1013.8
20260507075003 14 151 4.8 11.3 0.00 0.00 0.00 65 1013.8
20260507074503 14 145 6.4 11.3 0.00 0.00 0.00 67 1013.8
20260507074003 13 146 6.4 11.3 0.00 0.00 0.00 69 1013.7
20260507073503 13 142 4.8 11.3 0.00 0.00 0.00 71 1013.8
20260507073004 12 136 3.2 6.4 0.00 0.00 0.00 77 1013.7
20260507072503 11 158 1.6 3.2 0.00 0.00 0.00 80 1013.7
20260507072003 11 174 0.0 3.2 0.00 0.00 0.00 81 1013.9
20260507071717 11 0 0.0 0.0 0.00 0.00 0.00 81 1013.8
20260507071003 10 220 0.0 1.6 0.00 0.00 0.00 81 1014.1
20260507070503 10 218 0.0 3.2 0.00 0.00 0.00 82 1014.2
20260507070218 10 224 1.6 4.8 0.00 0.00 0.00 82 1014.1
20260507065717 10 230 1.6 4.8 0.00 0.00 0.00 82 1014.1
20260507065003 10 236 1.6 3.2 0.00 0.00 0.00 82 1014.0
20260507064503 10 240 0.0 3.2 0.00 0.00 0.00 83 1013.9
20260507064003 9 218 0.0 1.6 0.00 0.00 0.00 83 1013.8
20260507063503 9 200 0.0 3.2 0.00 0.00 0.00 84 1013.9
20260507063003 9 179 1.6 3.2 0.00 0.00 0.00 83 1013.8
20260507062503 9 90 0.0 3.2 0.00 0.00 0.00 82 1013.7
20260507062003 9 187 0.0 3.2 0.00 0.00 0.00 83 1013.6
20260507061503 8 185 0.0 3.2 0.00 0.00 0.00 83 1013.6
20260507061003 8 188 0.0 1.6 0.00 0.00 0.00 83 1013.5
20260507060503 8 196 0.0 1.6 0.00 0.00 0.00 84 1013.4
20260507060003 8 200 0.0 3.2 0.00 0.00 0.00 84 1013.5
20260507055717 8 188 1.6 4.8 0.00 0.00 0.00 83 1013.4
20260507055003 8 72 1.6 4.8 0.00 0.00 0.00 81 1013.4
20260507054503 8 99 1.6 3.2 0.00 0.00 0.00 80 1013.2
20260507054218 9 147 1.6 4.8 0.00 0.00 0.00 79 1013.2
20260507053503 9 132 1.6 4.8 0.00 0.00 0.00 80 1013.0
20260507053004 8 128 0.0 3.2 0.00 0.00 0.00 81 1013.1
20260507052503 8 162 0.0 3.2 0.00 0.00 0.00 82 1012.8
20260507052003 8 238 1.6 4.8 0.00 0.00 0.00 83 1012.7
20260507051717 8 247 1.6 4.8 0.00 0.00 0.00 83 1012.8
20260507051003 8 128 1.6 4.8 0.00 0.00 0.00 83 1012.6
20260507050503 8 100 1.6 6.4 0.00 0.00 0.00 83 1012.6
20260507050003 8 86 1.6 6.4 0.00 0.00 0.00 84 1012.6
20260507045503 8 122 1.6 6.4 0.00 0.00 0.00 84 1012.7
20260507045003 8 109 1.6 6.4 0.00 0.00 0.00 84 1012.6
20260507044716 8 74 1.6 6.4 0.00 0.00 0.00 85 1012.5
20260507044003 7 205 0.0 3.2 0.00 0.00 0.00 86 1012.8
20260507043503 7 212 0.0 3.2 0.00 0.00 0.00 85 1012.6
20260507043003 7 202 0.0 3.2 0.00 0.00 0.00 85 1012.8
20260507042718 7 182 0.0 3.2 0.00 0.00 0.00 85 1012.9
20260507042217 7 176 0.0 1.6 0.00 0.00 0.00 85 1012.7
20260507041503 7 185 0.0 4.8 0.00 0.00 0.00 85 1012.8
20260507041003 7 185 0.0 4.8 0.00 0.00 0.00 84 1012.9
20260507040503 7 210 0.0 3.2 0.00 0.00 0.00 84 1012.9
20260507040003 7 210 0.0 3.2 0.00 0.00 0.00 85 1012.9
20260507035503 7 214 0.0 4.8 0.00 0.00 0.00 85 1012.9
20260507035217 7 220 0.0 4.8 0.00 0.00 0.00 86 1012.7
20260507034503 7 216 0.0 3.2 0.00 0.00 0.00 85 1012.9
20260507034003 7 212 0.0 3.2 0.00 0.00 0.00 85 1012.8
20260507033718 7 215 0.0 3.2 0.00 0.00 0.00 85 1012.9
20260507033003 7 198 0.0 1.6 0.00 0.00 0.00 86 1012.7
20260507032504 7 195 0.0 4.8 0.00 0.00 0.00 86 1012.7
20260507032217 7 208 1.6 4.8 0.00 0.00 0.00 86 1012.9
20260507031503 7 223 1.6 4.8 0.00 0.00 0.00 85 1012.8
20260507031003 7 218 0.0 3.2 0.00 0.00 0.00 85 1012.7
20260507030718 7 217 0.0 3.2 0.00 0.00 0.00 85 1012.8
20260507030217 7 229 0.0 3.2 0.00 0.00 0.00 86 1012.8
20260507025503 7 226 1.6 3.2 0.00 0.00 0.00 86 1012.7
20260507025003 7 216 0.0 3.2 0.00 0.00 0.00 86 1012.8
20260507024503 7 205 0.0 1.6 0.00 0.00 0.00 85 1012.7
20260507024003 7 197 0.0 3.2 0.00 0.00 0.00 86 1012.6
20260507023503 7 185 0.0 3.2 0.00 0.00 0.00 86 1012.6
20260507023003 7 197 0.0 1.6 0.00 0.00 0.00 85 1012.7
20260507022503 7 212 0.0 1.6 0.00 0.00 0.00 85 1012.5
20260507022003 7 217 0.0 1.6 0.00 0.00 0.00 84 1012.6
20260507021503 8 214 0.0 1.6 0.00 0.00 0.00 84 1012.5
20260507021003 8 219 0.0 1.6 0.00 0.00 0.00 84 1012.6
20260507020503 8 221 0.0 1.6 0.00 0.00 0.00 84 1012.8
20260507020218 8 221 0.0 1.6 0.00 0.00 0.00 84 1012.6
20260507015503 8 200 0.0 3.2 0.00 0.00 0.00 83 1012.8
20260507015003 8 198 0.0 3.2 0.00 0.00 0.00 83 1012.8
20260507014503 8 199 0.0 3.2 0.00 0.00 0.00 84 1012.5
20260507014003 8 200 1.6 3.2 0.00 0.00 0.00 85 1012.8
20260507013503 7 194 1.6 3.2 0.00 0.00 0.00 85 1013.0
20260507013003 8 193 1.6 4.8 0.00 0.00 0.00 85 1012.9
20260507012503 7 183 1.6 6.4 0.00 0.00 0.00 85 1013.0
20260507012003 8 177 1.6 6.4 0.00 0.00 0.00 83 1013.1
20260507011503 8 205 0.0 3.2 0.00 0.00 0.00 83 1013.0
20260507010717 8 218 0.0 1.6 0.00 0.00 0.00 84 1013.2
20260507010003 8 219 0.0 3.2 0.00 0.00 0.00 83 1013.1
20260507005503 8 219 1.6 3.2 0.00 0.00 0.00 83 1013.2
20260507005003 8 222 1.6 3.2 0.00 0.00 0.00 83 1013.3
20260507004503 7 220 1.6 3.2 0.00 0.00 0.00 84 1013.3
20260507004003 8 212 1.6 3.2 0.00 0.00 0.00 84 1013.3
20260507003717 8 208 1.6 3.2 0.00 0.00 0.00 84 1013.3
20260507003003 8 213 1.6 3.2 0.00 0.00 0.00 83 1013.4
20260507002503 8 218 1.6 3.2 0.00 0.00 0.00 82 1013.6
20260507002218 8 220 1.6 3.2 0.00 0.00 0.00 82 1013.5
20260507001503 8 230 3.2 4.8 0.00 0.00 0.00 81 1013.7
20260507001003 8 227 1.6 4.8 0.00 0.00 0.00 82 1013.6
20260507000503 8 223 1.6 3.2 0.00 0.00 0.00 82 1013.5
20260507000003 8 214 0.0 3.2 0.00 0.00 0.00 83 1013.6
20260506235503 8 202 0.0 1.6 0.00 0.00 0.00 83 1013.7
20260506235003 8 193 0.0 3.2 0.00 0.00 0.00 82 1013.4
20260506234503 8 198 0.0 3.2 0.00 0.00 0.00 82 1013.7
20260506234003 8 204 0.0 1.6 0.00 0.00 0.00 82 1013.7
20260506233503 8 213 0.0 1.6 0.00 0.00 0.00 80 1013.6
20260506233218 9 215 0.0 1.6 0.00 0.00 0.00 81 1013.8
20260506232718 8 217 0.0 1.6 0.00 0.00 0.00 81 1014.0
20260506232217 9 0 0.0 0.0 0.00 0.00 0.00 80 1013.9
20260506231503 9 185 0.0 1.6 0.00 0.00 0.00 80 1013.7
20260506231003 9 192 0.0 1.6 0.00 0.00 0.00 80 1013.9
20260506230718 9 196 0.0 1.6 0.00 0.00 0.00 80 1013.8
20260506230003 10 200 0.0 3.2 0.00 0.00 0.00 79 1013.8
20260506225503 10 206 0.0 3.2 0.00 0.00 0.00 78 1013.7
20260506225003 10 225 0.0 1.6 0.00 0.00 0.00 77 1013.9
20260506224503 10 0 0.0 0.0 0.00 0.00 0.00 77 1013.9
20260506224003 10 191 0.0 1.6 0.00 0.00 0.00 78 1014.0
20260506223503 10 192 0.0 1.6 0.00 0.00 0.00 78 1014.0
20260506223003 10 198 0.0 1.6 0.00 0.00 0.00 76 1014.0
20260506222503 10 217 0.0 3.2 0.00 0.00 0.00 76 1013.9
20260506222003 10 217 1.6 3.2 0.00 0.00 0.00 76 1014.0
20260506221504 10 218 1.6 3.2 0.00 0.00 0.00 74 1013.9
20260506221003 11 0 0.0 0.0 0.00 0.00 0.00 74 1013.9
20260506220503 11 224 0.0 3.2 0.00 0.00 0.00 74 1014.0
20260506220003 11 224 0.0 3.2 0.00 0.00 0.00 73 1013.9
20260506215503 11 218 0.0 3.2 0.00 0.00 0.00 73 1014.0
20260506215003 11 212 0.0 1.6 0.00 0.00 0.00 74 1014.0
20260506214503 11 211 0.0 1.6 0.00 0.00 0.00 74 1013.8
20260506214003 11 188 0.0 3.2 0.00 0.00 0.00 72 1013.7
20260506213718 11 183 0.0 3.2 0.00 0.00 0.00 72 1013.7
20260506213003 11 157 3.2 4.8 0.00 0.00 0.00 71 1013.8
20260506212503 11 151 3.2 4.8 0.00 0.00 0.00 70 1013.8
20260506212217 11 156 1.6 4.8 0.00 0.00 0.00 70 1014.0
20260506211503 11 181 0.0 3.2 0.00 0.00 0.00 70 1013.9
20260506211003 11 201 0.0 1.6 0.00 0.00 0.00 71 1013.7
20260506210503 12 187 0.0 3.2 0.00 0.00 0.00 70 1013.9
20260506210003 12 188 1.6 3.2 0.00 0.00 0.00 69 1013.7
20260506205503 12 186 1.6 3.2 0.00 0.00 0.00 68 1013.7
20260506205003 13 168 1.6 3.2 0.00 0.00 0.00 67 1013.7
20260506204503 13 169 1.6 3.2 0.00 0.00 0.00 66 1013.6
20260506204003 13 188 0.0 3.2 0.00 0.00 0.00 67 1013.6
20260506203503 13 188 0.0 3.2 0.00 0.00 0.00 65 1013.6
20260506203003 14 257 0.0 1.6 0.00 0.00 0.00 63 1013.4
20260506202503 15 246 0.0 1.6 0.00 0.00 0.00 59 1013.4
20260506202218 15 251 0.0 1.6 0.00 0.00 0.00 58 1013.3
20260506201503 15 250 0.0 1.6 0.00 0.00 0.00 58 1013.2
20260506201003 15 285 0.0 4.8 0.00 0.00 0.00 58 1013.3
20260506200503 15 314 1.6 4.8 0.00 0.00 0.00 56 1013.0
20260506200003 15 288 1.6 9.7 0.00 0.00 0.00 56 1013.0
20260506195503 15 267 3.2 9.7 0.00 0.00 0.00 56 1013.0
20260506195003 15 266 3.2 6.4 0.00 0.00 0.00 56 1013.0
20260506194503 15 263 4.8 11.3 0.00 0.00 0.00 55 1012.9
20260506194003 16 264 4.8 11.3 0.00 0.00 0.00 55 1012.8
20260506193717 16 270 4.8 11.3 0.00 0.00 0.00 55 1012.7
20260506193003 16 265 6.4 11.3 0.00 0.00 0.00 55 1012.6
20260506192504 16 266 6.4 11.3 0.00 0.00 0.00 54 1012.8
20260506192218 16 265 6.4 11.3 0.00 0.00 0.00 54 1012.6
20260506191503 16 263 8.0 16.1 0.00 0.00 0.00 53 1012.7
20260506191003 16 269 9.7 17.7 0.00 0.00 0.00 53 1012.6
20260506190503 17 262 9.7 17.7 0.00 0.00 0.00 52 1012.5
20260506190004 17 257 9.7 17.7 0.00 0.00 0.00 51 1012.5
20260506185717 17 254 9.7 17.7 0.00 0.00 0.00 50 1012.2
20260506185003 18 268 9.7 20.9 0.00 0.00 0.00 49 1012.2
20260506184503 18 277 11.3 20.9 0.00 0.00 0.00 48 1012.3
20260506184003 18 286 8.0 20.9 0.00 0.00 0.00 46 1012.1
20260506183503 19 287 6.4 12.9 0.00 0.00 0.00 40 1012.1
20260506183003 20 276 4.8 12.9 0.00 0.00 0.00 40 1012.1
20260506182716 20 279 4.8 12.9 0.00 0.00 0.00 39 1011.9
20260506182003 20 288 6.4 11.3 0.00 0.00 0.00 39 1012.0
20260506181503 20 284 6.4 14.5 0.00 0.00 0.00 38 1012.0
20260506181003 20 280 6.4 14.5 0.00 0.00 0.00 38 1012.0
20260506180503 20 289 8.0 16.1 0.00 0.00 0.00 38 1012.0
20260506180004 20 279 6.4 16.1 0.00 0.00 0.00 38 1011.9
20260506175503 20 265 6.4 14.5 0.00 0.00 0.00 37 1012.1
20260506175003 20 276 6.4 11.3 0.00 0.00 0.00 37 1012.1
20260506174503 20 282 6.4 11.3 0.00 0.00 0.00 37 1012.2
20260506174003 20 271 6.4 12.9 0.00 0.00 0.00 37 1012.2
20260506173503 20 275 8.0 16.1 0.00 0.00 0.00 37 1012.2
20260506173003 20 282 9.7 16.1 0.00 0.00 0.00 37 1012.1
20260506172503 20 279 6.4 16.1 0.00 0.00 0.00 37 1012.2
20260506172003 21 274 4.8 11.3 0.00 0.00 0.00 35 1012.2
20260506171503 21 281 4.8 11.3 0.00 0.00 0.00 36 1012.3
20260506171004 21 268 4.8 11.3 0.00 0.00 0.00 36 1012.2
20260506170503 21 277 6.4 12.9 0.00 0.00 0.00 36 1012.2
20260506170217 21 279 8.0 12.9 0.00 0.00 0.00 35 1012.3
20260506165718 21 279 6.4 14.5 0.00 0.00 0.00 35 1012.2
20260506165003 21 302 4.8 11.3 0.00 0.00 0.00 35 1012.2
20260506164503 21 292 4.8 11.3 0.00 0.00 0.00 35 1012.3
20260506164003 21 259 4.8 11.3 0.00 0.00 0.00 35 1012.4
20260506163503 21 258 3.2 11.3 0.00 0.00 0.00 36 1012.3
20260506163003 21 277 3.2 11.3 0.00 0.00 0.00 35 1012.3
20260506162718 21 284 3.2 6.4 0.00 0.00 0.00 33 1012.4
20260506162003 21 310 3.2 9.7 0.00 0.00 0.00 34 1012.6
20260506161503 21 286 3.2 9.7 0.00 0.00 0.00 34 1012.4
20260506161003 21 290 6.4 14.5 0.00 0.00 0.00 35 1012.5
20260506160503 21 293 6.4 14.5 0.00 0.00 0.00 35 1012.4
20260506160003 21 279 6.4 14.5 0.00 0.00 0.00 35 1012.5
20260506155503 21 280 4.8 12.9 0.00 0.00 0.00 35 1012.5
20260506155003 21 289 4.8 11.3 0.00 0.00 0.00 35 1012.6
20260506154503 20 278 6.4 16.1 0.00 0.00 0.00 35 1012.6
20260506154003 21 292 6.4 16.1 0.00 0.00 0.00 36 1012.8
20260506153503 21 304 6.4 14.5 0.00 0.00 0.00 35 1012.6
20260506153003 21 290 6.4 14.5 0.00 0.00 0.00 35 1012.6
20260506152503 21 295 4.8 14.5 0.00 0.00 0.00 34 1012.7
20260506152218 21 298 6.4 14.5 0.00 0.00 0.00 35 1012.8
20260506151503 21 284 6.4 14.5 0.00 0.00 0.00 35 1012.8
20260506151003 20 280 6.4 14.5 0.00 0.00 0.00 35 1012.8
20260506150503 21 293 3.2 11.3 0.00 0.00 0.00 34 1013.1
20260506150003 22 282 4.8 11.3 0.00 0.00 0.00 33 1013.0
20260506145503 21 260 6.4 16.1 0.00 0.00 0.00 33 1013.1
20260506145218 21 257 8.0 17.7 0.00 0.00 0.00 35 1012.9